NapervilleWeather.com

Find the Weather for any City, State  
or Zipcode, or Country:

Naperville, IL Weather
Local Radar

Local Radar

Graphs, Details
Graphs and Gauges
Detailed Weather
Detailed Reports
Ajax Version (old)
Davis Summary
Davis Current Weather Graphs
Davis 24 Hour Weather History
Cumulus

CW7164 Data

Weather Underground
www.awekas.at
Automatic Weather Map System
Latest Naperville, Illinois, weather
Weather For You
Maps
Temperature
Heat Index
Windchill
Humidity
Radar
Dew Point
Wind
Visibility
Visible Satellite
Satellite
Fronts
Snow Depth
Jet Stream
Flight Rules
Forecast Maps
Temperature Forecast
Maximum Temperature Forecast
Minimum Temperature Forecast
Dewpoint Forecast
Prevalent Weather
12Hr Probability of Precip.
Sky Cover
Health Maps
UV Forecast
Air Quality
Peak Air Quality Index
Weather Station
Davis Instruments Vantage Pro2
Current Conditions [Select Refresh to Update]

Updated: 7:49pm on 4/19/15

(location)
Currently:
53.6°F

Clear
rain mist

High: 73.9 °F< 
(11:59am
Low: 51.4 °F 
(12:00am)
Wind: SSW 0 mph
Calm
Gust: 3 mph
Today's High Wind: 8 mph (10:27am)
Humidity: 96%
Pressure: 29.40 in  (Falling
Pressure Rate: -0.033 in/hr
Dew Point: 52.5°F
Wind Chill: 53.6 °F
Heat Index (feels like): 60.2 °F
Comfort Level: Cool
Temperature Rate:  -0.44°F/hr
 
5 Day Forecast
 
Mon Tue Wed Thu Fri
Clear Clear Clear Clear Clear
Rain Chance Rain Mostly Cloudy Partly Cloudy Mostly Cloudy
58 55 52 53 55
37 34 32 32 33

Records and Normals
 
Temperature Forecast Normal Record
High 58 62 79
(2005)
Low 37 39 30
(1999)
 
 
Weather Advisories
No Warnings
Full Advisory Text...
Weather Map

Web Cam

Almanac
 
Sunrise:  
6:05am
Moonrise: 
6:49am

Moon Phase:
2%

Sunset: 
7:36pm
Moonset:  
8:54pm
 Star Chart...
Rainfall Totals
Hourly Rain 0.07 in
Daily Rain: 0.28 in
Monthly Rain: 2.06 in
Yearly Rain: 4.70 in
Normal Rain, month to date: 3.07 in
Normal Rain, year to date: 5.40 in
Local Weather Exchange Network
Station ID City 
(Click for Map Location)
Neighborhood 
(Click for History)
Last Update (Date & Time) Temperature
 ()
Dew
Point ()
Humidity 
(%)
Wind 
(mph)
from the Wind Gust 
(mph) 
Pressure(in) Hourly
Rain(in)
KILWARRE5 Warrenville Briergate Drive 04/19 19:36:05 57.9 51.0 77 0 North 0 29.46 0.00
KILNAPER40 Naperville Downtown 04/19 19:35:49 54.7 53.0 93 0 North 0 29.48 0.00
KILNAPER15 Naperville Indian Hill Near Jefferson JHS 04/19 19:39:24 53.4 52.0 94 4 NE 11 29.37 0.04
KILNAPER21 Naperville Saybrook 04/19 19:30:15 53.4 52.0 96 3 NE 10 29.41 0.05
KILNAPER33 Naperville Downtown 04/19 19:36:04 53.6 50.0 88 0 North 0 29.34 0.00
KILNAPER28 Naperville Pawnee Lane 04/19 19:35:42 56.3 51.0 82 0 North 0 29.48 0.07
KILNAPER25 Naperville brushhill-w 04/19 19:37:24 54.0 52.0 93 1 NE 7 29.37 0.02
KILNAPER24 Naperville Brush Hill 04/19 19:29:20 54.1 53.0 95 6 ENE 8 29.33 0.05
KILNAPER34 Naperville Downtown 04/19 19:35:55 55.2 46.0 72 0 North 0 29.03 0.00
KILNAPER19 Naperville Brookdale Lakes 04/19 19:39:58 53.7 52.0 94 2 ESE 9 29.38 0.06
KILNAPER7 Naperville NapervilleWeather.com Near Ogden and Naper Blvd 04/19 19:39:41 53.6 52.0 96 0 SSW 3 29.41 0.07
KILWARRE2 Warrenville Warrenville Neighborhood Weather 04/19 19:26:40 53.7 52.0 94 4 NE 0 29.37 0.00
KILNAPER42 Naperville Savannah Circle 04/19 19:36:09 55.8 50.0 82 0 North 0 29.47 0.00
KILNAPER38 Naperville East Highlands 04/19 19:39:53 54.9 54.0 97 0 NE 2 29.58 0.21
KILNAPER23 Naperville Naper Blvd at BNSF RR 04/19 19:33:58 53.2 52.0 95 2 NE 6 29.41 0.00
KILNAPER30 Naperville Cypress Drive 04/19 19:35:28 55.0 51.0 85 0 North 0 29.24 0.00
KILLISLE10 Lisle Maple Avenue 04/19 19:35:46 54.7 51.0 87 0 North 0 29.47 0.00
KILNAPER46 Naperville Hilton Head Drive 04/19 19:36:15 54.5 46.0 73 0 North 0 29.44 0.00
KILLISLE9 Lisle Park Meadow Drive 04/19 19:35:31 57.7 52.0 82 0 North 0 29.42 0.00
KILWARRE6 Warrenville Summer Lakes 04/19 19:34:48 53.6 52.0 94 2 NNE 7 29.39 0.07
KILNAPER56 Naperville Ann Reid ECC 04/19 19:30:53 53.1 52.0 98 8 ENE 0 29.28 0.00
KILNAPER9 Naperville 75th St. / Modaff Area 04/19 19:39:57 53.5 52.0 95 2 East 3 29.37 0.07
KILLISLE7 Lisle Beau Monde Drive 04/19 19:35:25 53.4 52.0 93 0 North 0 29.47 0.00
KILNAPER53 Naperville Bovidae Circle 04/19 19:32:28 56.1 52.0 87 0 North 0 28.74 0.00
KILWHEAT8 Wheaton Wheaton Sanitary District 04/19 19:32:59 54.5 53.0 94 4 NE 10 29.40 0.04
KILWHEAT15 Wheaton Schubert Court 04/19 19:36:29 53.6 45.0 73 0 North 0 29.35 0.00
KILWHEAT11 Wheaton Wheaton SW Orth Ct 04/19 19:39:52 56.5 49.0 76 0 South 2 29.50 0.00
KILAUROR27 Aurora Stonehaven 04/19 19:33:02 53.6 52.0 96 4 East 0 29.22 0.00
KILNAPER35 Naperville Nutmeg Lane 04/19 19:35:53 54.1 52.0 92 0 North 0 29.47 0.00
KILNAPER16 Naperville SE Naperville / NE Clow Arpt 04/19 19:39:56 53.5 52.0 93 2 NE 13 29.39 0.03
KILNAPER51 Naperville Glouceston Lane 04/19 19:35:42 53.4 53.0 100 0 North 0 29.24 0.01
KILNAPER22 Naperville Willow Ridge 04/19 19:33:37 53.4 53.0 99 0 North 0 29.19 0.00
KILNAPER50 Naperville Sutton Circle 04/19 19:35:45 59.4 48.0 67 0 North 0 29.42 0.02
KILWHEAT5 Wheaton N9ABF - West Wheaton 04/19 19:39:45 53.0 50.0 89 1 ENE 7 29.39 0.03
KILGLENE9 Glen Ellyn Valley View 04/19 19:35:22 53.4 52.0 96 3 ESE 0 29.27 0.00
MD1973 Downers Grove APRSWXNET 04/19 19:14:00 53.0 52.0 95 4 NE 13 29.38 0.00
KILNAPER26 Naperville Landore Drive 04/19 19:35:45 58.8 49.0 70 0 North 0 29.41 0.02
KILWINFI2 Winfield Winfield Heights (SarahNet) 04/19 19:24:59 53.3 51.0 91 0 NNE 3 29.40 0.05
KILNAPER37 Naperville Conan Doyle Road 04/19 19:35:53 55.8 50.0 82 0 North 0 29.38 0.00
KDPA Chicago DuPage Official Station 04/19 18:52:00 53.0 51.0 93 9 NE --- 29.44 ---
Full Advisory Text
No Warnings

Ambient Weather and Weather Underground
 Never base important decisions on this or any weather information obtained from the Internet
Updated Automatically by Ambient Weather's Virtual Weather Station  V14.01